ATLAS 5 CENTAUR R/B, 41623

Orbit data source: Space-Track

ATLAS 5 CENTAUR R/B, 41623 is space debris in HEO originally from a launch on Fri, 24 Jun 2016 UTC launched from the Air Force Eastern Test Range (AFETR). Debris objects in space refer to the collection of defunct objects orbiting the Earth. Examples of debris include non-operational satellites, rocket bodies, and fragments generated from explosions, collisions, or faulty payload assembly.

Loading next visibility...
Identifier
41623, 2016-041B
Orbit
HEO
Country
Flag of USUS
Related business
Manufacturer
LMSS Denver
Mission
Spacecraft
Bus & Motor
CENTAUR SEC, RL10C-1
Mass
~2,020 kg wet, 2,020 kg dry
Launch date (UTC)
2016-06-24 (10 years ago)
Launch vehicle
Unknown
Launch site
Air Force Eastern Test Range (AFETR)
Object type
Payload
Rocket body
Debris
Shape & HBR
Cyl + 1 Nozzle, 5.8 m
Radar Cross Section
32.260 m², Large (>1 m²)

Expand to show TLE details & history
Last TLE update: 3 days ago

TLE from 3 days ago
0 ATLAS 5 CENTAUR R/B
1 41623U 16041B   26170.22864390 -.00000248  00000-0  00000-0 0  9993
2 41623  19.3009   9.7213 6088128 328.3011   6.2582  2.09536686 76442
Epoch: 2026-06-19T05:29Z
TLE epoch observation values (Epoch: 2026-06-19T05:29:14.832Z)
Latitude
0.00044°
Longitude
19.95031°
Altitude
4,341.956 km
Speed
7.675 km/s
True Right ascension
00h 38m 53s
True Declination
0° 00' 02"
Sunlit
Object was in daylight at epoch
Visualization orbit readout
Latitude
Unknown
Longitude
Unknown
Altitude
Unknown
Speed
Unknown
Apparent Right ascension
Unknown
Apparent Declination
Unknown
Sunlit
N/A
Visualization observer readout
Local Sidereal Time
21:42:54
Azimuth
Unknown
Elevation
Unknown
Doppler factor
Unknown
Orbital elements
Apogee altitude
35,128.324 km
Perigee altitude
3,714.272 km
Semi-major axis
25,799.435 km
Eccentricity
0.60881
Inclination
19.3009°
RAAN
9.7213°
Arg. of periapsis
328.3011°
True anomaly
31.22989°
Mean anomaly
6.2582°
Eccentric anomaly
15.6937°
Mean motion
0.52375 °/min
Orbital period
687.34 mins
BSTAR
0
Loading maneuver chart data...
Computing Atmospheric mass density...
Loading historical data...
Loading historical data...
Loading historical data...
Loading historical data...
Loading historical data...
Loading historical data...
Loading historical data...
Other satellites on launch #41 in the year 2016 (2016-06-24 UTC)

Documentation

Showing up to 5 results
|